Zurück zum Katalog

COSMOS 2535 DEB

AktivSSO
NORAD 44631·DEBRIS·🇷🇺 Russia

Gestartet Jul 10, 2019 von Plesetsk Cosmodrome

Loading…

Nächste Überflüge (nächste 24 Stunden)

TLE

AktuellSource: Space-Track

Epoche: Sep 14, 2026, 13:19 UTC

1 44631U 19039H   26257.55496273  .00005418  00000-0  29055-3 0  9995
2 44631  97.5125 295.8949 0019957 110.7735 249.5638 15.15216162378476

Verfolge COSMOS 2535 DEB in Echtzeit mit AllMySat

Download on the App Store